Content
SEND FEEDBACK

Daily
Averages
Monthly
Summary
United States of America

CLEVELAND, NEW MEXICO


Home > North America > United States > New Mexico
Elevation: 8488 feet     Latitude: 35 54N     Longitude: 105 26W

WEATHER
 
SELECT A DAY
Number of Records: 164,534;   Date Range: 1/1/95 - 11/22/14
 
SHARE

PRINT THIS DATA

[ ← Previous Day ]
WEATHER ALMANAC - FEBRUARY 13, 2013
[ Next Day → ]
[ °C ]   °F
Weather ElementAverageHighLow
Temperature31.5 °F50 °F (3:53 pm)12 °F (4:53 am)
Dewpoint6.1 °F12 °F (9:53 pm)1 °F (1:53 am)
Humidity37.9 %61 % (4:53 am)18 % (1:53 pm)
Barometer29.97 in30.06 in (1:53 am)29.84 in (3:53 pm)
Wind Speed6.1 mph12.7 mph (2:53 pm)
Weather ElementAverage
Visibility10 mi
Wind DirectionESE (124.3 °)

Weather ElementTotal
Precipitation---
Heating Degree Days34 (Base 65)
Averaged from 23 records on February 13, 2013
WEATHER CONDITIONS BREAKOUT
WIND DIRECTION BREAKOUT
WEATHER BY HOUR - FEBRUARY 13, 2013
[ °C ]   °F
Local TimeTemperatureDewpointHumidityBarometerVisibilityWind DirectionWind SpeedGust SpeedPrecipitationEventsConditions
1:53 AM15.1 °F1.0 °F54 %30.06 in10.0 miNE (40°)4.6 mphClear
2:53 AM14.0 °F1.0 °F56 %30.04 in10.0 miCalmClear
3:53 AM19.0 °F1.0 °F46 %30.00 in10.0 miNorth (360°)4.6 mphClear
4:53 AM12.0 °F1.0 °F61 %30.04 in10.0 miNNE (30°)4.6 mphClear
5:53 AM14.0 °F1.0 °F56 %30.06 in10.0 miNE (40°)9.2 mphClear
6:53 AM16.0 °F1.0 °F52 %30.06 in10.0 miNNE (30°)5.8 mphClear
7:53 AM23.0 °F6.1 °F48 %30.03 in10.0 miCalmClear
8:53 AM30.9 °F8.1 °F38 %30.01 in10.0 miNNW (340°)4.6 mphClear
9:53 AM37.0 °F8.1 °F30 %29.98 in10.0 miWNW (300°)4.6 mphClear
10:53 AM41.0 °F1.9 °F20 %29.97 in10.0 miSSW (200°)6.9 mphClear
11:53 AM43.0 °F6.1 °F22 %29.93 in10.0 miSouth (180°)6.9 mphClear
12:53 PM46.0 °F6.1 °F20 %29.89 in10.0 miSSE (150°)5.8 mphClear
1:53 PM46.9 °F5.0 °F18 %29.89 in10.0 miCalmClear
2:53 PM48.9 °F7.0 °F18 %29.86 in10.0 miSSE (160°)12.7 mphClear
3:53 PM50.0 °F9.0 °F19 %29.84 in10.0 miSouth (190°)12.7 mphClear
4:53 PM48.0 °F9.0 °F21 %29.88 in10.0 miSSE (160°)8.1 mphClear
5:53 PM39.0 °F10.0 °F30 %29.93 in10.0 miSSE (160°)8.1 mphClear
6:53 PM36.0 °F6.1 °F29 %29.98 in10.0 miNE (40°)12.7 mphClear
7:53 PM32.0 °F7.0 °F35 %29.98 in10.0 miNE (40°)9.2 mphClear
8:53 PM26.1 °F10.9 °F53 %29.99 in10.0 miEast (80°)9.2 mphClear
9:53 PM28.0 °F12.0 °F51 %29.96 in10.0 miENE (60°)5.8 mphClear
10:53 PM28.0 °F10.9 °F49 %29.96 in10.0 miCalmClear
11:53 PM30.0 °F10.9 °F45 %29.95 in10.0 miWNW (300°)3.5 mphClear
Hourly data recorded from KLVS, located miles away from Cleveland, New Mexico







STORIES FROM OUR PARTNERS